Miami, FL

5:57 AM EDT on June 24, 2018 (GMT -0400)
Miami International

Weather History for KMIA - September, 2017

Change the Weather History Date:

Wednesday, September 13, 2017

  Actual Average Record
Temperature  
Mean Temperature 86 °F 83 °F  
Max Temperature 91 °F 90 °F 93 °F (1947)
Min Temperature 81 °F 77 °F 69 °F (1923)
Degree Days  
Heating Degree Days 0 0  
Month to date heating degree days 0 0  
Since 1 July heating degree days 0 0  
Cooling Degree Days 21 18  
Month to date cooling degree days 230 236  
Year to date cooling degree days 3804 3311  
Growing Degree Days 36 (Base 50)    
Moisture  
Dew Point 76 °F    
Average Humidity 80    
Maximum Humidity 100    
Minimum Humidity 59    
Precipitation  
Precipitation T in 0.32 in 3.08 in (1970)
Month to date precipitation 3.26 4.16  
Year to date precipitation 53.73 44.56  
Snow  
Snow 0.00 in - - ()
Month to date snowfall 0.0  
Since 1 July snowfall 0.0  
Since 1 September snowfall 0.0  
Snow Depth 0.00 in    
Sea Level Pressure  
Sea Level Pressure 29.93 in    
Wind  
Wind Speed 5 mph (SE)    
Max Wind Speed 14 mph    
Max Gust Speed 23 mph    
Visibility 10 miles    
Events Rain , Thunderstorm    
T = Trace of Precipitation, MM = Missing Value Source: NWS Daily Summary

Daily Weather History Graph

Daily Weather History Graph

Search for Another Location

Airport or City:

Astronomy

Sep. 13, 2017 Rise Set
Actual Time 7:06 AM EDT 7:27 PM EDT
Civil Twilight 6:43 AM EDT 7:50 PM EDT
Nautical Twilight 6:16 AM EDT 8:17 PM EDT
Astronomical Twilight 5:49 AM EDT 8:44 PM EDT
Moon 12:31 AM EDT (9/13) 2:16 PM EDT (9/13)
Length of Visible Light 13h 07m
Length of Day
12h 20m
Last Quarter, 46% of the Moon is Illuminated
Sep 13
Last Quarter
Sep 20
New
Sep 27
First Quarter
Oct 5
Full
Oct 12
Last Quarter

Hourly Weather History & Observations

Time (EDT) Temp. Heat Index Dew Point Humidity Pressure Visibility Wind Dir Wind Speed Gust Speed Precip Events Conditions
12:53 AM 82.9 °F 90.8 °F 75.9 °F 79% 29.91 in 10.0 mi SW 4.6 mph - N/A   Mostly Cloudy
1:53 AM 82.9 °F 91.8 °F 77.0 °F 82% 29.91 in 10.0 mi SW 3.5 mph - N/A   Mostly Cloudy
2:53 AM 81.0 °F 89.9 °F 80.1 °F 97% 29.90 in 10.0 mi SW 3.5 mph - N/A   Mostly Cloudy
3:53 AM 81.0 °F 87.9 °F 77.0 °F 88% 29.90 in 10.0 mi Calm Calm - N/A   Mostly Cloudy
4:53 AM 81.0 °F 87.9 °F 77.0 °F 88% 29.91 in 10.0 mi Calm Calm - N/A   Scattered Clouds
5:53 AM 81.0 °F 87.9 °F 77.0 °F 88% 29.92 in 10.0 mi Calm Calm - N/A   Partly Cloudy
6:53 AM 81.0 °F 87.9 °F 77.0 °F 88% 29.94 in 10.0 mi WNW 3.5 mph - N/A   Partly Cloudy
7:53 AM 82.0 °F 90.2 °F 77.0 °F 85% 29.94 in 10.0 mi NW 3.5 mph - N/A   Partly Cloudy
8:53 AM 84.0 °F 91.9 °F 75.0 °F 74% 29.96 in 10.0 mi Calm Calm - N/A   Partly Cloudy
9:53 AM 86.0 °F 93.0 °F 73.0 °F 65% 29.96 in 10.0 mi Calm Calm - N/A   Partly Cloudy
10:53 AM 86.0 °F 93.8 °F 73.9 °F 67% 29.97 in 10.0 mi SSE 4.6 mph - N/A   Scattered Clouds
11:53 AM 88.0 °F 96.5 °F 73.9 °F 63% 29.97 in 10.0 mi East 4.6 mph - N/A   Scattered Clouds
12:53 PM 89.1 °F 98.0 °F 73.9 °F 61% 29.96 in 10.0 mi Variable 6.9 mph - N/A   Mostly Cloudy
1:53 PM 89.1 °F 97.0 °F 73.0 °F 59% 29.95 in 10.0 mi North - - N/A   Mostly Cloudy
2:53 PM 88.0 °F 95.6 °F 73.0 °F 61% 29.93 in 10.0 mi South 8.1 mph - N/A   Mostly Cloudy
3:27 PM 87.1 °F 95.4 °F 73.9 °F 65% 29.92 in 10.0 mi ESE 11.5 mph 20.7 mph N/A Thunderstorm Mostly Cloudy
3:42 PM 86.0 °F 95.1 °F 75.0 °F 70% 29.92 in 10.0 mi SE 10.4 mph 18.4 mph N/A   Mostly Cloudy
3:53 PM 86.0 °F 96.0 °F 75.9 °F 72% 29.93 in 10.0 mi SE 10.4 mph - N/A Thunderstorm Mostly Cloudy
4:09 PM 84.9 °F 98.9 °F 80.1 °F 85% 29.92 in 10.0 mi SE 10.4 mph - N/A   Mostly Cloudy
4:29 PM 84.9 °F 94.1 °F 75.9 °F 74% 29.92 in 10.0 mi SE 10.4 mph - 0.00 in Rain , Thunderstorm Light Thunderstorms and Rain
4:53 PM 86.0 °F 96.0 °F 75.9 °F 72% 29.92 in 10.0 mi SE 10.4 mph - 0.00 in Thunderstorm Thunderstorm
5:26 PM 87.1 °F 96.3 °F 75.0 °F 67% 29.92 in 10.0 mi SE 10.4 mph 19.6 mph N/A   Overcast
5:53 PM 87.1 °F 95.4 °F 73.9 °F 65% 29.92 in 10.0 mi SE 8.1 mph - N/A   Mostly Cloudy
6:53 PM 84.9 °F 92.1 °F 73.9 °F 69% 29.93 in 10.0 mi East 10.4 mph - N/A   Mostly Cloudy
7:53 PM 84.0 °F 91.9 °F 75.0 °F 74% 29.94 in 10.0 mi ESE 8.1 mph - N/A   Mostly Cloudy
8:53 PM 82.9 °F 90.8 °F 75.9 °F 79% 29.94 in 10.0 mi SE 8.1 mph - N/A   Mostly Cloudy
9:53 PM 82.9 °F 91.8 °F 77.0 °F 82% 29.96 in 10.0 mi SE 5.8 mph - N/A   Mostly Cloudy
10:53 PM 82.9 °F 91.8 °F 77.0 °F 82% 29.96 in 10.0 mi SE 4.6 mph - N/A   Mostly Cloudy
11:53 PM 82.0 °F 90.2 °F 77.0 °F 85% 29.96 in 10.0 mi SE 4.6 mph - N/A   Mostly Cloudy